Location: Trebic
(49.2170°N, 15.8830°E)
Time: 22:44:47
(UTC+01:00)

Transit 4A - Pass Details

Date: 03 November 2020
Orbit: 862 x 982 km, 66.8° (Epoch: 30 November)

Event Time Altitude Azimuth Distance (km) Brightness Sun altitude
Rises 19:05:32 0° 314° (NW) 3,688 11.8 -25.5°
Reaches altitude 10° 19:09:04 10° 333° (NNW) 2,745 10.7 -26.1°
Maximum altitude 19:13:21 18° 15° (NNE) 2,201 9.7 -26.8°
Enters shadow 19:13:58 18° 22° (NNE) 2,212 9.7 -26.9°
